• In Germany
  • List of Countries
  • For 7 days
  • Water Temperature
  • Satellite Maps
  • Weather Map
  • Weather Widgets
  • user-avatar
    Login

    Hourly Weather Lezhe

    Today, 19 August, Saturday

    Time Temperature Precipitation Wind Pressure Humidity
    00:00 +24°C° 0 mm 2 mps 738 mmHg 45%
    01:00 +25°C° 0 mm 3 mps 738 mmHg 46%
    02:00 +24°C° 0 mm 2 mps 738 mmHg 48%
    03:00 +24°C° 0 mm 2 mps 738 mmHg 49%
    04:00 +23°C° 0 mm 2 mps 738 mmHg 51%
    05:00 +25°C° 0 mm 2 mps 738 mmHg 48%
    06:00 +27°C° 0 mm 2 mps 738 mmHg 45%
    07:00 +29°C° 0 mm 2 mps 738 mmHg 42%
    08:00 +31°C° 0 mm 2 mps 738 mmHg 37%
    09:00 +34°C° 0 mm 2 mps 738 mmHg 33%
    10:00 +34°C° 0 mm 1 mps 738 mmHg 29%
    11:00 +36°C° 0 mm 2 mps 738 mmHg 28%
    12:00 +36°C° 0 mm 3 mps 738 mmHg 27%
    13:00 +35°C° 0 mm 2 mps 738 mmHg 31%
    14:00 +35°C° 0 mm 2 mps 737 mmHg 32%
    15:00 +34°C° 0 mm 2 mps 737 mmHg 34%
    16:00 +34°C° 0 mm 2 mps 737 mmHg 36%
    17:00 +31°C° 0 mm 1 mps 737 mmHg 41%
    18:00 +29°C° 0 mm 1 mps 737 mmHg 45%
    19:00 +25°C° 0 mm 0 mps 737 mmHg 50%
    20:00 +26°C° 0 mm 1 mps 737 mmHg 51%
    21:00 +26°C° 0 mm 1 mps 737 mmHg 52%
    22:00 +25°C° 0 mm 1 mps 737 mmHg 53%
    23:00 +25°C° 0 mm 1 mps 737 mmHg 54%

    Tomorrow, 20 August, Sunday

    Time Temperature Precipitation Wind Pressure Humidity
    00:00 +24°C° 0 mm 1 mps 737 mmHg 54%
    01:00 +24°C° 0 mm 2 mps 737 mmHg 55%
    02:00 +24°C° 0 mm 2 mps 737 mmHg 56%
    03:00 +23°C° 0 mm 2 mps 736 mmHg 56%
    04:00 +23°C° 0 mm 2 mps 736 mmHg 57%
    05:00 +25°C° 0 mm 2 mps 736 mmHg 53%
    06:00 +26°C° 0 mm 2 mps 736 mmHg 48%
    07:00 +28°C° 0 mm 1 mps 736 mmHg 44%
    08:00 +30°C° 0 mm 2 mps 736 mmHg 38%
    09:00 +32°C° 0 mm 2 mps 736 mmHg 33%
    10:00 +35°C° 0 mm 2 mps 736 mmHg 27%
    11:00 +35°C° 0 mm 2 mps 736 mmHg 26%
    12:00 +36°C° 0 mm 3 mps 736 mmHg 26%
    13:00 +36°C° 0 mm 3 mps 735 mmHg 25%
    14:00 +35°C° 0 mm 3 mps 735 mmHg 27%
    15:00 +35°C° 0 mm 3 mps 735 mmHg 29%
    16:00 +34°C° 0 mm 2 mps 735 mmHg 31%
    17:00 +30°C° 0.1 mm 2 mps 735 mmHg 38%
    18:00 +28°C° 0.1 mm 1 mps 735 mmHg 45%
    19:00 +25°C° 0.1 mm 1 mps 735 mmHg 52%
    20:00 +25°C° 0.7 mm 1 mps 735 mmHg 57%
    21:00 +24°C° 0.7 mm 1 mps 736 mmHg 63%
    22:00 +23°C° 0.7 mm 2 mps 736 mmHg 68%
    23:00 +23°C° 0.7 mm 2 mps 736 mmHg 73%

    Day after tomorrow, 21 August, Monday

    Time Temperature Precipitation Wind Pressure Humidity
    00:00 +21°C° 0.7 mm 2 mps 736 mmHg 78%
    01:00 +21°C° 0.7 mm 3 mps 736 mmHg 83%
    02:00 +20°C° 0.1 mm 3 mps 736 mmHg 84%
    03:00 +20°C° 0.1 mm 3 mps 736 mmHg 85%
    04:00 +20°C° 0.1 mm 3 mps 736 mmHg 87%
    05:00 +21°C° 0 mm 3 mps 736 mmHg 82%
    06:00 +21°C° 0 mm 4 mps 736 mmHg 77%
    07:00 +22°C° 0 mm 4 mps 737 mmHg 72%
    08:00 +25°C° 0 mm 4 mps 737 mmHg 63%
    09:00 +27°C° 0 mm 4 mps 737 mmHg 53%
    10:00 +29°C° 0 mm 4 mps 737 mmHg 44%
    11:00 +29°C° 0 mm 4 mps 737 mmHg 40%
    12:00 +30°C° 0 mm 4 mps 736 mmHg 37%
    13:00 +32°C° 0 mm 4 mps 736 mmHg 34%
    14:00 +30°C° 0 mm 4 mps 736 mmHg 34%
    15:00 +30°C° 0 mm 5 mps 736 mmHg 35%
    16:00 +30°C° 0 mm 5 mps 736 mmHg 35%
    17:00 +28°C° 0 mm 5 mps 736 mmHg 41%
    18:00 +25°C° 0 mm 5 mps 736 mmHg 46%
    19:00 +22°C° 0 mm 4 mps 736 mmHg 51%
    20:00 +21°C° 0 mm 4 mps 737 mmHg 53%
    21:00 +20°C° 0 mm 4 mps 737 mmHg 56%
    22:00 +19°C° 0 mm 4 mps 738 mmHg 59%
    23:00 +19°C° 0 mm 4 mps 738 mmHg 60%

    22 August, Tuesday

    Time Temperature Precipitation Wind Pressure Humidity
    00:00 +18°C° 0 mm 4 mps 738 mmHg 61%
    01:00 +18°C° 0 mm 4 mps 737 mmHg 62%
    02:00 +17°C° 0 mm 4 mps 738 mmHg 62%
    03:00 +17°C° 0 mm 4 mps 738 mmHg 63%
    04:00 +15°C° 0 mm 4 mps 738 mmHg 63%
    05:00 +18°C° 0 mm 4 mps 738 mmHg 57%
    06:00 +19°C° 0 mm 4 mps 738 mmHg 52%
    07:00 +21°C° 0 mm 4 mps 738 mmHg 46%
    08:00 +23°C° 0 mm 4 mps 738 mmHg 41%
    09:00 +26°C° 0 mm 4 mps 739 mmHg 35%
    10:00 +28°C° 0 mm 4 mps 739 mmHg 29%
    11:00 +29°C° 0 mm 4 mps 738 mmHg 27%
    12:00 +30°C° 0 mm 4 mps 738 mmHg 25%
    13:00 +32°C° 0 mm 4 mps 738 mmHg 23%
    14:00 +32°C° 0 mm 4 mps 738 mmHg 23%
    15:00 +30°C° 0 mm 4 mps 737 mmHg 23%
    16:00 +30°C° 0 mm 5 mps 737 mmHg 24%
    17:00 +28°C° 0 mm 5 mps 737 mmHg 30%
    18:00 +25°C° 0 mm 4 mps 738 mmHg 36%
    19:00 +22°C° 0 mm 4 mps 738 mmHg 42%
    20:00 +21°C° 0 mm 4 mps 738 mmHg 44%
    21:00 +20°C° 0 mm 3 mps 738 mmHg 46%
    22:00 +19°C° 0 mm 3 mps 739 mmHg 48%
    23:00 +18°C° 0 mm 3 mps 739 mmHg 50%

    23 August, Wednesday

    Time Temperature Precipitation Wind Pressure Humidity
    00:00 +18°C° 0 mm 3 mps 739 mmHg 52%
    01:00 +18°C° 0 mm 3 mps 738 mmHg 54%
    02:00 +17°C° 0 mm 3 mps 738 mmHg 55%
    03:00 +17°C° 0 mm 3 mps 738 mmHg 55%
    04:00 +17°C° 0 mm 3 mps 738 mmHg 55%
    05:00 +19°C° 0 mm 3 mps 739 mmHg 51%
    06:00 +21°C° 0 mm 3 mps 739 mmHg 46%
    07:00 +23°C° 0 mm 2 mps 739 mmHg 41%
    08:00 +26°C° 0 mm 2 mps 739 mmHg 36%
    09:00 +28°C° 0 mm 1 mps 739 mmHg 30%
    10:00 +31°C° 0 mm 1 mps 739 mmHg 24%
    11:00 +31°C° 0 mm 2 mps 739 mmHg 23%
    12:00 +33°C° 0 mm 3 mps 739 mmHg 21%
    13:00 +33°C° 0 mm 4 mps 739 mmHg 20%
    14:00 +33°C° 0 mm 4 mps 739 mmHg 21%
    15:00 +33°C° 0 mm 4 mps 739 mmHg 23%
    16:00 +32°C° 0 mm 4 mps 738 mmHg 24%
    17:00 +28°C° 0 mm 3 mps 739 mmHg 31%
    18:00 +25°C° 0 mm 2 mps 739 mmHg 39%
    19:00 +22°C° 0 mm 1 mps 739 mmHg 46%
    20:00 +21°C° 0 mm 2 mps 739 mmHg 44%
    21:00 +21°C° 0 mm 2 mps 740 mmHg 43%
    22:00 +20°C° 0 mm 2 mps 740 mmHg 41%
    23:00 +20°C° 0 mm 2 mps 740 mmHg 40%

    24 August, Thursday

    Time Temperature Precipitation Wind Pressure Humidity
    00:00 +20°C° 0 mm 2 mps 740 mmHg 40%
    01:00 +19°C° 0 mm 2 mps 740 mmHg 39%
    02:00 +19°C° 0 mm 2 mps 740 mmHg 40%
    03:00 +19°C° 0 mm 2 mps 740 mmHg 41%
    04:00 +19°C° 0 mm 2 mps 740 mmHg 42%
    05:00 +20°C° 0 mm 2 mps 740 mmHg 40%
    06:00 +23°C° 0 mm 2 mps 741 mmHg 37%
    07:00 +25°C° 0 mm 2 mps 741 mmHg 35%
    08:00 +27°C° 0 mm 2 mps 741 mmHg 31%
    09:00 +30°C° 0 mm 2 mps 741 mmHg 26%
    10:00 +32°C° 0 mm 2 mps 741 mmHg 22%
    11:00 +34°C° 0 mm 2 mps 741 mmHg 21%
    12:00 +35°C° 0 mm 3 mps 741 mmHg 20%
    13:00 +36°C° 0 mm 3 mps 740 mmHg 18%
    14:00 +36°C° 0 mm 3 mps 740 mmHg 20%
    15:00 +35°C° 0 mm 4 mps 740 mmHg 21%
    16:00 +35°C° 0 mm 4 mps 740 mmHg 22%
    17:00 +31°C° 0 mm 3 mps 740 mmHg 27%
    18:00 +28°C° 0 mm 3 mps 740 mmHg 32%
    19:00 +25°C° 0 mm 2 mps 740 mmHg 38%
    20:00 +25°C° 0 mm 2 mps 740 mmHg 37%
    21:00 +24°C° 0 mm 2 mps 740 mmHg 36%
    22:00 +24°C° 0 mm 2 mps 741 mmHg 36%
    23:00 +23°C° 0 mm 2 mps 741 mmHg 36%
    Show more